Regional Weather Roundup
Issued by NWS

Home | Current Version | Previous Version | Graphics & Text | Print | Product List | Glossary On
Versions: 1 2 3 4 5 6 7 8 9 10 11 12 13 14 15 16 17 18 19 20 21 22 23 24 25 26 27
000
ASUS45 KBOI 252310
RWRID

IDAHO REGIONAL WEATHER ROUNDUP
NATIONAL WEATHER SERVICE BOISE ID
500 PM MDT WED MAY 25 2016

NOTE: "FAIR" INDICATES FEW OR NO CLOUDS BELOW 12000 FEET
WITH NO SIGNIFICANT WEATHER AND/OR OBSTRUCTIONS TO VISIBILITY

IDZ012-014-260000-
SOUTHWEST IDAHO


CITY           SKY/WX    TMP DP  RH WIND       PRES   REMARKS
BOISE          PTSUNNY   71  36  27 N10       29.98S
CALDWELL       CLOUDY    70  40  33 W6        29.97F
MOUNTAIN HOME  PTSUNNY   70  44  39 VRB5      29.96F
$$

IDZ016-017-260000-
SOUTHCENTRAL IDAHO


CITY           SKY/WX    TMP DP  RH WIND       PRES   REMARKS
BURLEY         PTSUNNY   62  43  49 S10       30.00S
JEROME         MOSUNNY   65  36  34 SW10      30.01S
TWIN FALLS     PTSUNNY   64  38  38 W13       30.01F
$$

IDZ019>023-260000-
SOUTHEAST IDAHO


CITY           SKY/WX    TMP DP  RH WIND       PRES   REMARKS
IDAHO FALLS    CLOUDY    51  44  77 S10       30.02F
POCATELLO      LGT RAIN  58  44  60 NW9       30.03R
REXBURG        CLOUDY    58  41  53 NE8       30.01R
$$

IDZ006-010-011-018-031-032-260000-
CENTRAL IDAHO MOUNTAINS


CITY           SKY/WX    TMP DP  RH WIND       PRES   REMARKS
MCCALL         MOSUNNY   58  34  40 NW7       30.02S
STANLEY          N/A     47  39  74 S5        30.05R
SALMON         SUNNY     64  36  34 SW5       29.94S
CHALLIS        MOSUNNY   63  31  30 CALM      29.97F
$$

IDZ002-004-006-007-026-260000-
NORTHERN IDAHO


CITY           SKY/WX    TMP DP  RH WIND       PRES   REMARKS
LEWISTON       MOSUNNY   75  45  34 CALM      29.98F
LOWELL           N/A     64  50  60 VRB3      30.02F
COEUR D`ALENE  MOSUNNY   70  48  46 W14G22    29.96F
MULLAN PASS    CLOUDY    47  42  83 NW8       30.07S
$$




USA.gov is the U.S. government's official web portal to all federal, state and local government web resources and services.